EWG4TL EDDK-HEGN

Flight info

Callsign EWG4TL
Flight time 4h 7m
Altitude 35000
Route N0447F350 KUMIK L603 TESGA DCT ESATI DCT DETEV DCT DINKU M867 XERUM DCT BAVAX DCT RADIZ DCT NIPEL DCT NEMEK DCT ELTIB DCT PINDO DCT SIT N0440F370 DCT PAXIS Y707 OBRAN L321 REXUM M872 BOPOB
Aircraft A320/M-SDE2E3FGIJ1RWXYZ/HB1

Departure

Time 2026-04-21 10:37
Airport Cologne Bonn Airport (EDDK)

Arrival

Time 2026-04-21 14:44
Airport Hurghada International Airport (HEGN)
Time Latitude Longitude Altitude Speed Heading
2026-04-21 10:09 50.88198 7.11903 252 ft 0 kts 216°
2026-04-21 10:29 50.88199 7.11905 232 ft 1 kts 216°
2026-04-21 10:29 50.88212 7.11920 234 ft 3 kts 216°
2026-04-21 10:29 50.88229 7.11939 235 ft 3 kts 216°
2026-04-21 10:29 50.88244 7.11957 233 ft 2 kts 216°
2026-04-21 10:30 50.88260 7.11972 235 ft 3 kts 186°
2026-04-21 10:30 50.88278 7.11969 234 ft 3 kts 144°
2026-04-21 10:30 50.88292 7.11948 235 ft 2 kts 127°
2026-04-21 10:30 50.88296 7.11942 234 ft 0 kts 126°
2026-04-21 10:33 50.88279 7.11979 235 ft 9 kts 126°
2026-04-21 10:33 50.88247 7.12047 232 ft 12 kts 126°
2026-04-21 10:33 50.88190 7.12171 232 ft 13 kts 126°
2026-04-21 10:34 50.88155 7.12253 232 ft 9 kts 112°
2026-04-21 10:34 50.88154 7.12380 232 ft 12 kts 107°
2026-04-21 10:34 50.88057 7.12541 232 ft 15 kts 137°
2026-04-21 10:34 50.87999 7.12628 232 ft 10 kts 130°
2026-04-21 10:35 50.87987 7.12680 234 ft 0 kts 94°
2026-04-21 10:35 50.87987 7.12682 234 ft 1 kts 92°
2026-04-21 10:35 50.87999 7.12772 237 ft 12 kts 75°
2026-04-21 10:35 50.88007 7.12880 239 ft 14 kts 91°
2026-04-21 10:36 50.87980 7.12994 239 ft 12 kts 127°
2026-04-21 10:36 50.87760 7.13327 239 ft 78 kts 137°
2026-04-21 10:36 50.87208 7.14122 246 ft 134 kts 137°
2026-04-21 10:36 50.86418 7.15273 312 ft 172 kts 133°
2026-04-21 10:37 50.85527 7.16481 1096 ft 166 kts 138°
2026-04-21 10:37 50.84652 7.17686 1825 ft 167 kts 137°
2026-04-21 10:37 50.83760 7.18951 2242 ft 181 kts 136°
2026-04-21 10:37 50.82783 7.20342 2452 ft 202 kts 136°
2026-04-21 10:38 50.81868 7.22141 2679 ft 219 kts 112°
2026-04-21 10:38 50.81409 7.24509 3164 ft 229 kts 96°
2026-04-21 10:38 50.81190 7.27127 3582 ft 250 kts 95°
2026-04-21 10:38 50.80952 7.29898 4283 ft 257 kts 95°
2026-04-21 10:39 50.80712 7.32648 5115 ft 260 kts 96°
2026-04-21 10:39 50.80463 7.35504 5970 ft 262 kts 96°
2026-04-21 10:39 50.80212 7.38370 6763 ft 265 kts 96°
2026-04-21 10:39 50.79964 7.41200 7489 ft 268 kts 96°
2026-04-21 10:40 50.79657 7.44103 8213 ft 273 kts 105°
2026-04-21 10:40 50.78783 7.46796 8908 ft 280 kts 122°
2026-04-21 10:40 50.77659 7.49334 9666 ft 284 kts 124°
2026-04-21 10:40 50.76508 7.51892 10380 ft 288 kts 124°
2026-04-21 10:41 50.75305 7.54554 10604 ft 309 kts 124°
2026-04-21 10:41 50.74026 7.57397 10743 ft 332 kts 124°
2026-04-21 10:41 50.72652 7.60457 11123 ft 343 kts 124°
2026-04-21 10:41 50.71277 7.63511 11705 ft 348 kts 124°
2026-04-21 10:42 50.69866 7.66638 12320 ft 353 kts 124°
2026-04-21 10:42 50.68431 7.69814 12937 ft 357 kts 124°
2026-04-21 10:42 50.66893 7.72916 13551 ft 362 kts 129°
2026-04-21 10:42 50.65221 7.75910 14147 ft 366 kts 131°
2026-04-21 10:43 50.63499 7.78903 14674 ft 371 kts 131°
2026-04-21 10:43 50.61743 7.81906 15229 ft 374 kts 131°
2026-04-21 10:43 50.59993 7.84885 15760 ft 377 kts 132°
2026-04-21 10:43 50.58208 7.87932 16306 ft 381 kts 132°
2026-04-21 10:44 50.56411 7.91016 16831 ft 384 kts 131°
2026-04-21 10:44 50.54601 7.94133 17385 ft 388 kts 131°
2026-04-21 10:44 50.52777 7.97283 17912 ft 391 kts 131°
2026-04-21 10:44 50.50940 8.00457 18426 ft 394 kts 131°
2026-04-21 10:45 50.49086 8.03654 18881 ft 398 kts 132°
2026-04-21 10:45 50.47216 8.06873 19343 ft 400 kts 132°
2026-04-21 10:45 50.45331 8.10102 19799 ft 403 kts 132°
2026-04-21 10:45 50.43454 8.13306 20239 ft 405 kts 132°
2026-04-21 10:46 50.41535 8.16571 20678 ft 408 kts 132°
2026-04-21 10:46 50.39605 8.19855 21117 ft 411 kts 132°
2026-04-21 10:46 50.37661 8.23162 21549 ft 413 kts 132°
2026-04-21 10:46 50.35708 8.26484 21962 ft 416 kts 133°
2026-04-21 10:47 50.34297 8.28885 22256 ft 418 kts 133°
2026-04-21 10:47 50.32364 8.32376 22642 ft 421 kts 131°
2026-04-21 10:47 50.30402 8.35783 23035 ft 423 kts 133°
2026-04-21 10:47 50.28381 8.39155 23426 ft 426 kts 134°
2026-04-21 10:48 50.26450 8.42333 23775 ft 429 kts 134°
2026-04-21 10:48 50.24644 8.45303 24049 ft 432 kts 134°
2026-04-21 10:48 50.22580 8.48724 24334 ft 435 kts 133°
2026-04-21 10:48 50.20510 8.52187 24604 ft 438 kts 133°
2026-04-21 10:49 50.18429 8.55686 24861 ft 441 kts 133°
2026-04-21 10:49 50.16336 8.59213 25136 ft 445 kts 133°
2026-04-21 10:49 50.14225 8.62764 25399 ft 448 kts 133°
2026-04-21 10:49 50.12102 8.66330 25660 ft 451 kts 134°
2026-04-21 10:50 50.09987 8.69873 25912 ft 454 kts 134°
2026-04-21 10:50 50.07828 8.73486 26174 ft 457 kts 134°
2026-04-21 10:50 50.05652 8.77124 26434 ft 460 kts 134°
2026-04-21 10:50 50.03462 8.80779 26684 ft 463 kts 134°
2026-04-21 10:51 50.01258 8.84449 26924 ft 467 kts 134°
2026-04-21 10:51 49.99032 8.88148 27181 ft 470 kts 134°
2026-04-21 10:51 49.96788 8.91865 27405 ft 473 kts 134°
2026-04-21 10:51 49.94527 8.95603 27638 ft 476 kts 135°
2026-04-21 10:52 49.92283 8.99308 27859 ft 480 kts 135°
2026-04-21 10:52 49.89990 9.03089 28078 ft 483 kts 135°
2026-04-21 10:52 49.87679 9.06897 28298 ft 486 kts 135°
2026-04-21 10:52 49.85355 9.10725 28501 ft 489 kts 135°
2026-04-21 10:53 49.83015 9.14579 28712 ft 493 kts 135°
2026-04-21 10:53 49.80660 9.18454 28929 ft 495 kts 135°
2026-04-21 10:53 49.78290 9.22348 29139 ft 498 kts 135°
2026-04-21 10:53 49.75906 9.26256 29341 ft 501 kts 135°
2026-04-21 10:54 49.73534 9.30134 29513 ft 504 kts 135°
2026-04-21 10:54 49.71118 9.34074 29704 ft 507 kts 136°
2026-04-21 10:54 49.68684 9.38034 29926 ft 509 kts 136°
2026-04-21 10:54 49.66239 9.42010 30118 ft 512 kts 136°
2026-04-21 10:55 49.63782 9.46003 30355 ft 513 kts 136°
2026-04-21 10:55 49.61326 9.49991 30607 ft 513 kts 136°
2026-04-21 10:55 49.58865 9.53976 30866 ft 513 kts 136°
2026-04-21 10:55 49.56398 9.57963 31130 ft 513 kts 136°
2026-04-21 10:56 49.53968 9.61885 31372 ft 514 kts 136°
2026-04-21 10:56 49.51499 9.65867 31627 ft 514 kts 136°
2026-04-21 10:56 49.49031 9.69842 31887 ft 514 kts 136°
2026-04-21 10:56 49.46560 9.73813 32137 ft 514 kts 136°
2026-04-21 10:57 49.44085 9.77780 32373 ft 514 kts 136°
2026-04-21 10:57 49.41610 9.81742 32622 ft 515 kts 136°
2026-04-21 10:57 49.39131 9.85708 32873 ft 515 kts 136°
2026-04-21 10:57 49.36652 9.89671 33140 ft 514 kts 136°
2026-04-21 10:58 49.34175 9.93624 33404 ft 514 kts 136°
2026-04-21 10:58 49.31734 9.97513 33670 ft 513 kts 136°
2026-04-21 10:58 49.29258 10.01446 33957 ft 512 kts 136°
2026-04-21 10:58 49.26782 10.05367 34221 ft 511 kts 136°
2026-04-21 10:59 49.24309 10.09278 34456 ft 511 kts 136°
2026-04-21 10:59 49.21846 10.13172 34699 ft 510 kts 136°
2026-04-21 10:59 49.19381 10.17070 34949 ft 508 kts 136°
2026-04-21 10:59 49.16928 10.20944 35143 ft 507 kts 136°
2026-04-21 11:00 49.14474 10.24814 35200 ft 506 kts 136°
2026-04-21 11:00 49.09608 10.32467 35209 ft 506 kts 136°
2026-04-21 11:01 49.04694 10.40151 35206 ft 506 kts 137°
2026-04-21 11:01 48.99769 10.47836 35215 ft 507 kts 137°
2026-04-21 11:02 48.92365 10.59354 35213 ft 508 kts 137°
2026-04-21 11:02 48.87451 10.66982 35208 ft 508 kts 137°
2026-04-21 11:03 48.82496 10.74639 35193 ft 508 kts 137°
2026-04-21 11:03 48.77545 10.82285 35183 ft 508 kts 137°
2026-04-21 11:04 48.72592 10.89918 35174 ft 508 kts 137°
2026-04-21 11:04 48.67634 10.97535 35154 ft 508 kts 137°
2026-04-21 11:05 48.62707 11.05092 35148 ft 508 kts 137°
2026-04-21 11:05 48.57736 11.12699 35158 ft 509 kts 137°
2026-04-21 11:06 48.52751 11.20289 35154 ft 509 kts 137°
2026-04-21 11:06 48.47754 11.27870 35146 ft 510 kts 137°
2026-04-21 11:07 48.42790 11.35394 35152 ft 510 kts 137°
2026-04-21 11:07 48.37815 11.42920 35153 ft 510 kts 137°
2026-04-21 11:08 48.32804 11.50457 35159 ft 510 kts 137°
2026-04-21 11:08 48.27788 11.57995 35164 ft 510 kts 137°
2026-04-21 11:09 48.22774 11.65516 35164 ft 510 kts 138°
2026-04-21 11:09 48.17788 11.72955 35162 ft 509 kts 138°
2026-04-21 11:10 48.12764 11.80428 35161 ft 509 kts 138°
2026-04-21 11:10 48.07730 11.87885 35157 ft 509 kts 138°
2026-04-21 11:11 48.02703 11.95331 35144 ft 509 kts 138°
2026-04-21 11:11 47.97702 12.02709 35143 ft 509 kts 138°
2026-04-21 11:12 47.92661 12.10113 35137 ft 509 kts 138°
2026-04-21 11:12 47.87618 12.17514 35136 ft 508 kts 138°
2026-04-21 11:13 47.82616 12.24834 35130 ft 508 kts 138°
2026-04-21 11:13 47.77569 12.32192 35127 ft 508 kts 139°
2026-04-21 11:14 47.72523 12.39532 35124 ft 507 kts 139°
2026-04-21 11:14 47.67477 12.46852 35120 ft 507 kts 139°
2026-04-21 11:15 47.62421 12.54145 35116 ft 507 kts 139°
2026-04-21 11:15 47.57316 12.61330 35113 ft 506 kts 140°
2026-04-21 11:16 47.52204 12.68391 35101 ft 505 kts 140°
2026-04-21 11:16 47.47059 12.75482 35104 ft 505 kts 140°
2026-04-21 11:17 47.41925 12.82582 35097 ft 506 kts 140°
2026-04-21 11:17 47.36787 12.89674 35100 ft 506 kts 140°
2026-04-21 11:18 47.31671 12.96703 35090 ft 506 kts 140°
2026-04-21 11:18 47.26521 13.03762 35088 ft 506 kts 140°
2026-04-21 11:19 47.21362 13.10812 35082 ft 506 kts 140°
2026-04-21 11:19 47.16200 13.17848 35083 ft 506 kts 140°
2026-04-21 11:20 47.11083 13.24825 35075 ft 505 kts 140°
2026-04-21 11:20 47.05922 13.31822 35069 ft 505 kts 141°
2026-04-21 11:21 47.00751 13.38783 35062 ft 504 kts 141°
2026-04-21 11:21 46.95585 13.45738 35051 ft 504 kts 141°
2026-04-21 11:22 46.90462 13.52638 35046 ft 504 kts 141°
2026-04-21 11:22 46.85296 13.59583 35046 ft 504 kts 141°
2026-04-21 11:23 46.80118 13.66502 35036 ft 504 kts 141°
2026-04-21 11:23 46.74935 13.73399 35032 ft 504 kts 141°
2026-04-21 11:24 46.69789 13.80251 35031 ft 505 kts 141°
2026-04-21 11:24 46.64593 13.87142 35033 ft 505 kts 141°
2026-04-21 11:25 46.59401 13.94016 35031 ft 505 kts 141°
2026-04-21 11:25 46.54196 14.00878 35042 ft 505 kts 141°
2026-04-21 11:26 46.49022 14.07687 35041 ft 506 kts 141°
2026-04-21 11:26 46.45534 14.12271 35039 ft 506 kts 141°
2026-04-21 11:27 46.42239 14.16605 35052 ft 506 kts 141°
2026-04-21 11:27 46.37012 14.23441 35047 ft 507 kts 141°
2026-04-21 11:28 46.31801 14.30207 35043 ft 507 kts 141°
2026-04-21 11:28 46.26561 14.37015 35047 ft 507 kts 141°
2026-04-21 11:29 46.21316 14.43823 35049 ft 507 kts 141°
2026-04-21 11:29 46.16073 14.50614 35053 ft 506 kts 141°
2026-04-21 11:30 46.10862 14.57345 35048 ft 506 kts 141°
2026-04-21 11:30 46.05610 14.64090 35047 ft 506 kts 142°
2026-04-21 11:31 46.00352 14.70817 35052 ft 504 kts 142°
2026-04-21 11:31 45.95146 14.77484 35030 ft 501 kts 142°
2026-04-21 11:32 45.89971 14.84102 35030 ft 501 kts 142°
2026-04-21 11:32 45.84754 14.90741 35028 ft 501 kts 142°
2026-04-21 11:33 45.79533 14.97373 35032 ft 501 kts 142°
2026-04-21 11:33 45.74311 15.03984 35027 ft 501 kts 142°
2026-04-21 11:34 45.69119 15.10546 35029 ft 501 kts 142°
2026-04-21 11:34 45.63891 15.17140 35031 ft 501 kts 142°
2026-04-21 11:35 45.58658 15.23709 35039 ft 501 kts 143°
2026-04-21 11:35 45.53410 15.30269 35036 ft 502 kts 143°
2026-04-21 11:36 45.48160 15.36829 35047 ft 502 kts 142°
2026-04-21 11:36 45.42951 15.43345 35050 ft 502 kts 142°
2026-04-21 11:37 45.37706 15.49890 35052 ft 501 kts 142°
2026-04-21 11:37 45.32449 15.56409 35052 ft 501 kts 143°
2026-04-21 11:38 45.27193 15.62900 35049 ft 501 kts 142°
2026-04-21 11:38 45.21973 15.69336 35049 ft 500 kts 143°
2026-04-21 11:39 45.16720 15.75802 35048 ft 500 kts 143°
2026-04-21 11:39 45.11468 15.82256 35049 ft 499 kts 143°
2026-04-21 11:40 45.06220 15.88692 35039 ft 499 kts 143°
2026-04-21 11:40 45.01004 15.95057 35038 ft 499 kts 143°
2026-04-21 11:41 44.95749 16.01454 35030 ft 498 kts 143°
2026-04-21 11:41 44.90501 16.07836 35029 ft 498 kts 143°
2026-04-21 11:42 44.85253 16.14204 35025 ft 497 kts 143°
2026-04-21 11:42 44.80043 16.20511 35020 ft 497 kts 143°
2026-04-21 11:43 44.74799 16.26842 35013 ft 496 kts 143°
2026-04-21 11:43 44.69555 16.33155 35012 ft 496 kts 143°
2026-04-21 11:44 44.64311 16.39450 35006 ft 496 kts 143°
2026-04-21 11:44 44.59072 16.45726 35003 ft 495 kts 143°
2026-04-21 11:45 44.53872 16.51949 35002 ft 494 kts 143°
2026-04-21 11:45 44.48638 16.58191 35001 ft 494 kts 143°
2026-04-21 11:46 44.43400 16.64413 35002 ft 494 kts 143°
2026-04-21 11:46 44.38166 16.70618 35005 ft 493 kts 143°
2026-04-21 11:47 44.32967 16.76768 35005 ft 493 kts 143°
2026-04-21 11:47 44.27734 16.82935 35005 ft 492 kts 143°
2026-04-21 11:48 44.22504 16.89093 35005 ft 492 kts 143°
2026-04-21 11:48 44.17286 16.95237 35006 ft 491 kts 143°
2026-04-21 11:49 44.12064 17.01359 35003 ft 490 kts 143°
2026-04-21 11:49 44.06845 17.07460 34995 ft 490 kts 143°
2026-04-21 11:50 44.01662 17.13504 34988 ft 489 kts 143°
2026-04-21 11:50 43.96441 17.19575 34984 ft 490 kts 143°
2026-04-21 11:51 43.91216 17.25640 34992 ft 490 kts 143°
2026-04-21 11:51 43.85990 17.31693 34993 ft 489 kts 143°
2026-04-21 11:52 43.80766 17.37733 34985 ft 489 kts 143°
2026-04-21 11:52 43.75573 17.43714 34973 ft 489 kts 143°
2026-04-21 11:53 43.70342 17.49730 34963 ft 489 kts 143°
2026-04-21 11:53 43.65109 17.55731 34956 ft 489 kts 143°
2026-04-21 11:54 43.59861 17.61731 34947 ft 490 kts 143°
2026-04-21 11:54 43.54611 17.67737 34939 ft 490 kts 143°
2026-04-21 11:55 43.49386 17.73689 34935 ft 491 kts 144°
2026-04-21 11:55 43.44122 17.79677 34937 ft 491 kts 143°
2026-04-21 11:56 43.38853 17.85667 34931 ft 491 kts 144°
2026-04-21 11:56 43.33572 17.91631 34932 ft 491 kts 144°
2026-04-21 11:57 43.28284 17.97589 34933 ft 491 kts 144°
2026-04-21 11:57 43.23038 18.03489 34947 ft 491 kts 144°
2026-04-21 11:58 43.17763 18.09413 34955 ft 490 kts 144°
2026-04-21 11:58 43.12495 18.15321 34961 ft 489 kts 144°
2026-04-21 11:59 43.07234 18.21222 34969 ft 488 kts 144°
2026-04-21 11:59 43.01973 18.27092 34965 ft 487 kts 144°
2026-04-21 12:00 42.96752 18.32895 34968 ft 487 kts 144°
2026-04-21 12:00 42.91501 18.38719 34965 ft 486 kts 144°
2026-04-21 12:01 42.86257 18.44536 34961 ft 486 kts 144°
2026-04-21 12:01 42.81017 18.50335 34951 ft 485 kts 144°
2026-04-21 12:02 42.73162 18.58993 34950 ft 484 kts 144°
2026-04-21 12:03 42.67959 18.64718 34951 ft 484 kts 144°
2026-04-21 12:03 42.62726 18.70466 34951 ft 484 kts 144°
2026-04-21 12:04 42.57490 18.76191 34952 ft 483 kts 144°
2026-04-21 12:04 42.52252 18.81901 34945 ft 483 kts 144°
2026-04-21 12:05 42.47060 18.87562 34949 ft 482 kts 145°
2026-04-21 12:05 42.41824 18.93252 34939 ft 482 kts 145°
2026-04-21 12:06 42.36593 18.98926 34946 ft 482 kts 145°
2026-04-21 12:06 42.31369 19.04599 34941 ft 482 kts 145°
2026-04-21 12:07 42.26135 19.10259 34932 ft 482 kts 145°
2026-04-21 12:07 42.20932 19.15854 34944 ft 482 kts 145°
2026-04-21 12:08 42.15690 19.21491 34930 ft 482 kts 145°
2026-04-21 12:08 42.10442 19.27125 34941 ft 483 kts 146°
2026-04-21 12:09 42.05184 19.32756 34944 ft 483 kts 146°
2026-04-21 12:09 41.99921 19.38373 34947 ft 483 kts 146°
2026-04-21 12:10 41.94693 19.43942 34949 ft 483 kts 146°
2026-04-21 12:10 41.89430 19.49547 34950 ft 483 kts 146°
2026-04-21 12:11 41.84163 19.55141 34939 ft 483 kts 146°
2026-04-21 12:11 41.78885 19.60725 34935 ft 483 kts 146°
2026-04-21 12:12 41.73644 19.66263 34942 ft 483 kts 146°
2026-04-21 12:12 41.68361 19.71841 34941 ft 484 kts 146°
2026-04-21 12:13 41.63075 19.77416 34945 ft 484 kts 146°
2026-04-21 12:13 41.57781 19.82975 34949 ft 484 kts 146°
2026-04-21 12:14 41.52477 19.88526 34949 ft 484 kts 146°
2026-04-21 12:14 41.47206 19.94033 34951 ft 485 kts 146°
2026-04-21 12:15 41.41895 19.99572 34949 ft 485 kts 146°
2026-04-21 12:15 41.36586 20.05099 34951 ft 485 kts 146°
2026-04-21 12:16 41.31270 20.10624 34947 ft 484 kts 146°
2026-04-21 12:16 41.25995 20.16096 34948 ft 484 kts 146°
2026-04-21 12:17 41.20679 20.21591 34948 ft 484 kts 146°
2026-04-21 12:17 41.15366 20.27080 34952 ft 484 kts 146°
2026-04-21 12:18 41.10050 20.32571 34948 ft 484 kts 146°
2026-04-21 12:18 41.04736 20.38034 34948 ft 483 kts 146°
2026-04-21 12:19 40.99421 20.43478 34949 ft 483 kts 146°
2026-04-21 12:19 40.94138 20.48884 34948 ft 483 kts 146°
2026-04-21 12:20 40.88820 20.54318 34951 ft 483 kts 146°
2026-04-21 12:20 40.83499 20.59744 34950 ft 483 kts 147°
2026-04-21 12:21 40.78182 20.65160 34941 ft 483 kts 147°
2026-04-21 12:21 40.72859 20.70567 34934 ft 482 kts 147°
2026-04-21 12:22 40.67539 20.75959 34929 ft 482 kts 147°
2026-04-21 12:22 40.62252 20.81310 34934 ft 483 kts 147°
2026-04-21 12:23 40.56941 20.86669 34930 ft 483 kts 147°
2026-04-21 12:23 40.51609 20.92032 34927 ft 483 kts 147°
2026-04-21 12:24 40.46284 20.97407 34924 ft 483 kts 146°
2026-04-21 12:24 40.41094 21.03036 34921 ft 485 kts 143°
2026-04-21 12:25 40.36007 21.08760 34928 ft 485 kts 143°
2026-04-21 12:25 40.30858 21.14466 34930 ft 484 kts 144°
2026-04-21 12:26 40.25670 21.20104 34932 ft 485 kts 144°
2026-04-21 12:26 40.20474 21.25729 34926 ft 485 kts 144°
2026-04-21 12:27 40.15275 21.31354 34930 ft 485 kts 144°
2026-04-21 12:27 40.10115 21.36935 34923 ft 485 kts 144°
2026-04-21 12:28 40.04914 21.42549 34927 ft 485 kts 144°
2026-04-21 12:28 39.99710 21.48161 34926 ft 485 kts 144°
2026-04-21 12:29 39.94505 21.53759 34931 ft 485 kts 144°
2026-04-21 12:29 39.89300 21.59342 34926 ft 485 kts 144°
2026-04-21 12:30 39.84128 21.64877 34924 ft 484 kts 144°
2026-04-21 12:30 39.78927 21.70435 34927 ft 484 kts 144°
2026-04-21 12:31 39.73730 21.75983 34922 ft 483 kts 144°
2026-04-21 12:31 39.68538 21.81523 34916 ft 483 kts 144°
2026-04-21 12:32 39.63343 21.87047 34910 ft 483 kts 144°
2026-04-21 12:32 39.58182 21.92518 34902 ft 483 kts 144°
2026-04-21 12:33 39.52979 21.98016 34897 ft 483 kts 144°
2026-04-21 12:33 39.47770 22.03509 34896 ft 483 kts 144°
2026-04-21 12:34 39.42569 22.08996 34896 ft 483 kts 144°
2026-04-21 12:34 39.37357 22.14477 34896 ft 483 kts 144°
2026-04-21 12:35 39.32142 22.19952 34892 ft 483 kts 144°
2026-04-21 12:35 39.26961 22.25382 34894 ft 483 kts 144°
2026-04-21 12:36 39.21741 22.30836 34896 ft 483 kts 144°
2026-04-21 12:36 39.16518 22.36290 34892 ft 483 kts 144°
2026-04-21 12:37 39.11303 22.41738 34890 ft 482 kts 144°
2026-04-21 12:37 39.06082 22.47164 34895 ft 482 kts 144°
2026-04-21 12:38 39.00894 22.52540 34897 ft 482 kts 144°
2026-04-21 12:38 38.95668 22.57949 34903 ft 482 kts 144°
2026-04-21 12:39 38.90445 22.63350 34909 ft 482 kts 144°
2026-04-21 12:39 38.85223 22.68742 34912 ft 482 kts 144°
2026-04-21 12:40 38.80038 22.74082 34905 ft 481 kts 144°
2026-04-21 12:40 38.74813 22.79448 34905 ft 481 kts 145°
2026-04-21 12:41 38.69584 22.84798 34909 ft 481 kts 145°
2026-04-21 12:41 38.64355 22.90146 34905 ft 481 kts 145°
2026-04-21 12:42 38.59131 22.95496 34911 ft 481 kts 145°
2026-04-21 12:42 38.53901 23.00835 34910 ft 481 kts 145°
2026-04-21 12:43 38.48704 23.06121 34917 ft 481 kts 145°
2026-04-21 12:43 38.43468 23.11439 34923 ft 481 kts 145°
2026-04-21 12:44 38.38234 23.16741 34925 ft 481 kts 145°
2026-04-21 12:44 38.32995 23.22038 34933 ft 480 kts 145°
2026-04-21 12:45 38.27763 23.27325 34936 ft 480 kts 145°
2026-04-21 12:45 38.22534 23.32605 34945 ft 480 kts 145°
2026-04-21 12:46 38.17337 23.37824 34949 ft 479 kts 145°
2026-04-21 12:46 38.12113 23.43072 34953 ft 479 kts 145°
2026-04-21 12:47 38.06888 23.48314 34950 ft 478 kts 145°
2026-04-21 12:47 38.02557 23.52663 34952 ft 478 kts 145°
2026-04-21 12:48 37.97775 23.57449 34948 ft 478 kts 145°
2026-04-21 12:48 37.91699 23.63490 34944 ft 478 kts 145°
2026-04-21 12:49 37.86473 23.68683 34943 ft 477 kts 145°
2026-04-21 12:49 37.82132 23.72995 34944 ft 477 kts 145°
2026-04-21 12:50 37.76911 23.78175 34946 ft 477 kts 145°
2026-04-21 12:50 37.71682 23.83347 34946 ft 477 kts 146°
2026-04-21 12:51 37.66455 23.88500 34948 ft 477 kts 145°
2026-04-21 12:51 37.61264 23.93631 34948 ft 477 kts 145°
2026-04-21 12:52 37.56090 23.98743 34951 ft 477 kts 145°
2026-04-21 12:52 37.50859 24.03886 34954 ft 477 kts 146°
2026-04-21 12:53 37.45622 24.09007 34955 ft 477 kts 146°
2026-04-21 12:53 37.40426 24.14089 34956 ft 476 kts 146°
2026-04-21 12:54 37.35195 24.19207 34954 ft 476 kts 146°
2026-04-21 12:54 37.29965 24.24320 34960 ft 476 kts 146°
2026-04-21 12:55 37.24733 24.29421 34959 ft 476 kts 146°
2026-04-21 12:55 37.19494 24.34506 34960 ft 476 kts 146°
2026-04-21 12:56 37.14287 24.39545 34962 ft 476 kts 146°
2026-04-21 12:56 37.09047 24.44621 34957 ft 476 kts 146°
2026-04-21 12:57 37.03810 24.49693 34963 ft 476 kts 146°
2026-04-21 12:57 36.98569 24.54755 34965 ft 476 kts 146°
2026-04-21 12:58 36.93361 24.59779 34968 ft 476 kts 146°
2026-04-21 12:58 36.88113 24.64821 34967 ft 476 kts 146°
2026-04-21 12:59 36.82862 24.69856 34969 ft 476 kts 146°
2026-04-21 12:59 36.77633 24.74872 34966 ft 476 kts 146°
2026-04-21 13:00 36.72377 24.79902 34967 ft 476 kts 146°
2026-04-21 13:00 36.67152 24.84886 34972 ft 476 kts 146°
2026-04-21 13:01 36.61895 24.89899 34975 ft 476 kts 146°
2026-04-21 13:01 36.56628 24.94916 34976 ft 476 kts 146°
2026-04-21 13:02 36.51363 24.99919 34971 ft 476 kts 146°
2026-04-21 13:02 36.43456 25.07401 34982 ft 476 kts 147°
2026-04-21 13:03 36.38215 25.12355 34989 ft 477 kts 146°
2026-04-21 13:03 36.32944 25.17344 34984 ft 476 kts 147°
2026-04-21 13:04 36.27669 25.22310 34983 ft 476 kts 147°
2026-04-21 13:04 36.22384 25.27272 34988 ft 476 kts 147°
2026-04-21 13:05 36.17143 25.32197 34987 ft 476 kts 147°
2026-04-21 13:05 36.11867 25.37156 34993 ft 476 kts 147°
2026-04-21 13:06 36.06588 25.42098 34997 ft 476 kts 147°
2026-04-21 13:06 36.01299 25.47026 34993 ft 476 kts 147°
2026-04-21 13:07 35.96016 25.51953 34996 ft 476 kts 147°
2026-04-21 13:07 35.90731 25.56872 34996 ft 476 kts 147°
2026-04-21 13:08 35.85480 25.61751 35001 ft 476 kts 147°
2026-04-21 13:08 35.80195 25.66654 35001 ft 476 kts 147°
2026-04-21 13:09 35.74909 25.71555 34997 ft 476 kts 147°
2026-04-21 13:09 35.69623 25.76454 34997 ft 475 kts 147°
2026-04-21 13:10 35.64334 25.81331 35000 ft 475 kts 147°
2026-04-21 13:10 35.59079 25.86166 34995 ft 475 kts 147°
2026-04-21 13:11 35.53795 25.91029 34998 ft 475 kts 147°
2026-04-21 13:11 35.48510 25.95890 34994 ft 475 kts 147°
2026-04-21 13:12 35.43225 26.00746 34996 ft 475 kts 147°
2026-04-21 13:12 35.37935 26.05600 34993 ft 475 kts 147°
2026-04-21 13:13 35.32673 26.10399 34995 ft 475 kts 147°
2026-04-21 13:13 35.27369 26.15230 34996 ft 475 kts 147°
2026-04-21 13:14 35.22070 26.20064 35000 ft 475 kts 147°
2026-04-21 13:14 35.16765 26.24890 35005 ft 475 kts 147°
2026-04-21 13:15 35.11489 26.29674 35008 ft 475 kts 147°
2026-04-21 13:15 35.06179 26.34480 35007 ft 475 kts 147°
2026-04-21 13:16 35.00867 26.39288 35006 ft 475 kts 147°
2026-04-21 13:16 34.95551 26.44092 35008 ft 475 kts 147°
2026-04-21 13:17 34.90274 26.48854 35009 ft 475 kts 147°
2026-04-21 13:17 34.84959 26.53640 35007 ft 475 kts 147°
2026-04-21 13:18 34.79640 26.58419 35012 ft 475 kts 147°
2026-04-21 13:18 34.74319 26.63197 35005 ft 475 kts 148°
2026-04-21 13:19 34.69027 26.67931 35015 ft 475 kts 148°
2026-04-21 13:19 34.63701 26.72699 35015 ft 476 kts 148°
2026-04-21 13:20 34.58370 26.77462 35016 ft 476 kts 148°
2026-04-21 13:20 34.53037 26.82211 35019 ft 476 kts 148°
2026-04-21 13:21 34.47734 26.86930 35028 ft 476 kts 148°
2026-04-21 13:21 34.42396 26.91688 35028 ft 476 kts 148°
2026-04-21 13:22 34.37051 26.96439 35034 ft 477 kts 148°
2026-04-21 13:22 34.31696 27.01169 35038 ft 477 kts 148°
2026-04-21 13:23 34.26337 27.05904 35038 ft 477 kts 148°
2026-04-21 13:23 34.21023 27.10606 35043 ft 477 kts 148°
2026-04-21 13:24 34.15662 27.15329 35039 ft 477 kts 148°
2026-04-21 13:24 34.10303 27.20043 35041 ft 476 kts 148°
2026-04-21 13:25 34.04953 27.24752 35035 ft 476 kts 148°
2026-04-21 13:25 33.99633 27.29417 35033 ft 476 kts 148°
2026-04-21 13:26 33.94156 27.33826 35035 ft 469 kts 158°
2026-04-21 13:26 33.88234 27.37027 35033 ft 466 kts 162°
2026-04-21 13:27 33.82325 27.40137 35028 ft 467 kts 162°
2026-04-21 13:27 33.76381 27.43286 35033 ft 467 kts 162°
2026-04-21 13:28 33.70432 27.46440 35038 ft 467 kts 161°
2026-04-21 13:28 33.64479 27.49582 35047 ft 468 kts 161°
2026-04-21 13:29 33.58523 27.52730 35048 ft 468 kts 162°
2026-04-21 13:29 33.52605 27.55841 35047 ft 467 kts 162°
2026-04-21 13:30 33.46651 27.58968 35051 ft 467 kts 162°
2026-04-21 13:30 33.40698 27.62093 35050 ft 467 kts 162°
2026-04-21 13:31 33.34747 27.65201 35050 ft 467 kts 162°
2026-04-21 13:31 33.28840 27.68294 35048 ft 467 kts 162°
2026-04-21 13:32 33.22884 27.71392 35051 ft 467 kts 162°
2026-04-21 13:32 33.16935 27.74497 35052 ft 467 kts 162°
2026-04-21 13:33 33.10985 27.77599 35053 ft 467 kts 162°
2026-04-21 13:33 33.05074 27.80683 35059 ft 467 kts 162°
2026-04-21 13:34 32.99123 27.83775 35059 ft 467 kts 162°
2026-04-21 13:34 32.93169 27.86855 35068 ft 467 kts 162°
2026-04-21 13:35 32.87216 27.89943 35061 ft 467 kts 162°
2026-04-21 13:35 32.81299 27.93010 35061 ft 467 kts 162°
2026-04-21 13:36 32.75341 27.96079 35064 ft 467 kts 162°
2026-04-21 13:36 32.69385 27.99146 35068 ft 467 kts 162°
2026-04-21 13:37 32.63427 28.02220 35066 ft 467 kts 162°
2026-04-21 13:37 32.57506 28.05263 35066 ft 467 kts 163°
2026-04-21 13:38 32.51546 28.08314 35068 ft 467 kts 163°
2026-04-21 13:38 32.45587 28.11368 35068 ft 467 kts 163°
2026-04-21 13:39 32.39627 28.14416 35069 ft 466 kts 163°
2026-04-21 13:39 32.33707 28.17425 35067 ft 466 kts 163°
2026-04-21 13:40 32.27751 28.20458 35073 ft 466 kts 163°
2026-04-21 13:40 32.21799 28.23495 35072 ft 466 kts 163°
2026-04-21 13:41 32.15847 28.26529 35066 ft 466 kts 163°
2026-04-21 13:41 32.09941 28.29540 35065 ft 466 kts 163°
2026-04-21 13:42 32.03988 28.32548 35061 ft 465 kts 163°
2026-04-21 13:42 31.98032 28.35554 35062 ft 466 kts 163°
2026-04-21 13:43 31.92077 28.38569 35053 ft 466 kts 163°
2026-04-21 13:43 31.86171 28.41560 35057 ft 465 kts 163°
2026-04-21 13:44 31.80220 28.44566 35057 ft 465 kts 163°
2026-04-21 13:44 31.74273 28.47564 35052 ft 465 kts 163°
2026-04-21 13:45 31.68358 28.50539 35055 ft 466 kts 163°
2026-04-21 13:45 31.62400 28.53525 35049 ft 466 kts 163°
2026-04-21 13:46 31.56438 28.56498 35055 ft 466 kts 163°
2026-04-21 13:46 31.50476 28.59460 35058 ft 465 kts 163°
2026-04-21 13:47 31.44555 28.62411 35059 ft 465 kts 163°
2026-04-21 13:47 31.38599 28.65371 35059 ft 465 kts 163°
2026-04-21 13:48 31.32640 28.68330 35059 ft 465 kts 163°
2026-04-21 13:48 31.26685 28.71284 35063 ft 465 kts 163°
2026-04-21 13:49 31.20773 28.74215 35054 ft 465 kts 163°
2026-04-21 13:49 31.14821 28.77164 35055 ft 465 kts 164°
2026-04-21 13:50 31.08866 28.80097 35056 ft 464 kts 164°
2026-04-21 13:50 31.02912 28.83017 35059 ft 464 kts 164°
2026-04-21 13:51 30.96955 28.85935 35054 ft 464 kts 164°
2026-04-21 13:51 30.91043 28.88837 35052 ft 464 kts 164°
2026-04-21 13:52 30.85086 28.91755 35047 ft 464 kts 164°
2026-04-21 13:52 30.79132 28.94671 35044 ft 464 kts 164°
2026-04-21 13:53 30.73215 28.97565 35041 ft 464 kts 164°
2026-04-21 13:53 30.67261 29.00481 35038 ft 464 kts 164°
2026-04-21 13:54 30.61303 29.03389 35036 ft 464 kts 165°
2026-04-21 13:54 30.55343 29.06290 35031 ft 464 kts 165°
2026-04-21 13:55 30.49622 29.09787 35027 ft 478 kts 149°
2026-04-21 13:55 30.44754 29.15167 35021 ft 487 kts 139°
2026-04-21 13:56 30.40067 29.20831 35019 ft 487 kts 140°
2026-04-21 13:56 30.35356 29.26472 35015 ft 487 kts 140°
2026-04-21 13:57 30.30667 29.32065 35013 ft 488 kts 140°
2026-04-21 13:57 30.25946 29.37703 35015 ft 488 kts 140°
2026-04-21 13:58 30.21222 29.43343 35014 ft 488 kts 140°
2026-04-21 13:58 30.16493 29.48972 35014 ft 488 kts 140°
2026-04-21 13:59 30.11790 29.54573 35013 ft 489 kts 140°
2026-04-21 13:59 30.07050 29.60199 35015 ft 489 kts 141°
2026-04-21 14:00 30.02310 29.65831 35015 ft 489 kts 141°
2026-04-21 14:00 29.97596 29.71423 35017 ft 489 kts 141°
2026-04-21 14:01 29.92842 29.77040 35020 ft 489 kts 141°
2026-04-21 14:01 29.88081 29.82658 35016 ft 490 kts 141°
2026-04-21 14:02 29.83319 29.88275 35017 ft 490 kts 141°
2026-04-21 14:03 29.76192 29.96656 35024 ft 491 kts 141°
2026-04-21 14:03 29.71419 30.02276 35025 ft 491 kts 141°
2026-04-21 14:04 29.66643 30.07899 35025 ft 492 kts 141°
2026-04-21 14:04 29.61901 30.13574 35021 ft 493 kts 141°
2026-04-21 14:05 29.57198 30.19233 35023 ft 493 kts 141°
2026-04-21 14:05 29.52447 30.24911 35022 ft 493 kts 141°
2026-04-21 14:06 29.47673 30.30563 35020 ft 493 kts 141°
2026-04-21 14:06 29.42899 30.36224 35021 ft 494 kts 141°
2026-04-21 14:07 29.38160 30.41859 35021 ft 494 kts 141°
2026-04-21 14:07 29.33381 30.47522 35023 ft 494 kts 141°
2026-04-21 14:08 29.28591 30.53185 35024 ft 495 kts 142°
2026-04-21 14:08 29.23801 30.58842 35026 ft 495 kts 142°
2026-04-21 14:09 29.19040 30.64460 35027 ft 495 kts 142°
2026-04-21 14:09 29.14239 30.70116 35028 ft 495 kts 142°
2026-04-21 14:10 29.09438 30.75768 35024 ft 495 kts 142°
2026-04-21 14:10 29.04633 30.81419 35037 ft 496 kts 142°
2026-04-21 14:11 28.99857 30.87018 35019 ft 495 kts 142°
2026-04-21 14:11 28.95034 30.92647 35023 ft 496 kts 142°
2026-04-21 14:12 28.90217 30.98279 35027 ft 496 kts 142°
2026-04-21 14:12 28.85403 31.03918 35020 ft 496 kts 142°
2026-04-21 14:13 28.80619 31.09513 35017 ft 496 kts 142°
2026-04-21 14:13 28.75794 31.15136 35019 ft 496 kts 142°
2026-04-21 14:14 28.70999 31.20705 35018 ft 496 kts 142°
2026-04-21 14:14 28.66228 31.26411 35021 ft 499 kts 140°
2026-04-21 14:15 28.61634 31.32276 35023 ft 500 kts 139°
2026-04-21 14:15 28.57028 31.38215 35028 ft 500 kts 140°
2026-04-21 14:16 28.52376 31.44087 35027 ft 500 kts 140°
2026-04-21 14:16 28.47721 31.49882 35026 ft 500 kts 140°
2026-04-21 14:17 28.43045 31.55724 35021 ft 500 kts 140°
2026-04-21 14:17 28.38383 31.61584 35021 ft 500 kts 140°
2026-04-21 14:18 28.33711 31.67433 35010 ft 500 kts 140°
2026-04-21 14:18 28.29056 31.73222 35014 ft 500 kts 140°
2026-04-21 14:19 28.24371 31.79051 35015 ft 500 kts 140°
2026-04-21 14:19 28.19685 31.84877 35010 ft 500 kts 140°
2026-04-21 14:20 28.15001 31.90706 35004 ft 500 kts 140°
2026-04-21 14:20 28.10344 31.96484 34998 ft 500 kts 140°
2026-04-21 14:21 28.05652 32.02288 34995 ft 500 kts 140°
2026-04-21 14:21 28.03463 32.05378 34969 ft 511 kts 129°
2026-04-21 14:21 28.01650 32.08872 34524 ft 516 kts 125°
2026-04-21 14:21 27.99897 32.12424 34079 ft 518 kts 124°
2026-04-21 14:22 27.98172 32.16000 33585 ft 518 kts 124°
2026-04-21 14:22 27.96484 32.19547 33037 ft 519 kts 124°
2026-04-21 14:22 27.94776 32.23145 32491 ft 520 kts 123°
2026-04-21 14:22 27.93059 32.26743 31956 ft 521 kts 123°
2026-04-21 14:23 27.91329 32.30340 31433 ft 522 kts 124°
2026-04-21 14:23 27.89578 32.33958 30910 ft 528 kts 124°
2026-04-21 14:23 27.87796 32.37618 30407 ft 533 kts 124°
2026-04-21 14:23 27.86002 32.41291 29889 ft 536 kts 123°
2026-04-21 14:24 27.84198 32.44991 29306 ft 538 kts 123°
2026-04-21 14:24 27.82422 32.48648 28740 ft 538 kts 123°
2026-04-21 14:24 27.80624 32.52353 28180 ft 538 kts 123°
2026-04-21 14:24 27.78830 32.56052 27630 ft 538 kts 123°
2026-04-21 14:25 27.77031 32.59756 27096 ft 538 kts 123°
2026-04-21 14:25 27.75227 32.63459 26564 ft 538 kts 123°
2026-04-21 14:25 27.73422 32.67155 26058 ft 538 kts 123°
2026-04-21 14:25 27.71615 32.70851 25544 ft 538 kts 123°
2026-04-21 14:26 27.69802 32.74552 25049 ft 538 kts 123°
2026-04-21 14:26 27.67988 32.78248 24557 ft 538 kts 123°
2026-04-21 14:26 27.66201 32.81893 24091 ft 539 kts 122°
2026-04-21 14:26 27.64391 32.85593 23610 ft 539 kts 122°
2026-04-21 14:27 27.62580 32.89291 23073 ft 539 kts 122°
2026-04-21 14:27 27.60775 32.92975 22499 ft 533 kts 122°
2026-04-21 14:27 27.58999 32.96596 21907 ft 523 kts 122°
2026-04-21 14:27 27.57242 33.00171 21319 ft 520 kts 122°
2026-04-21 14:28 27.55492 33.03723 20747 ft 516 kts 121°
2026-04-21 14:28 27.53759 33.07237 20186 ft 511 kts 121°
2026-04-21 14:28 27.52071 33.10659 19693 ft 500 kts 121°
2026-04-21 14:28 27.50401 33.14049 19221 ft 490 kts 121°
2026-04-21 14:29 27.48759 33.17376 18762 ft 483 kts 121°
2026-04-21 14:29 27.47135 33.20665 18304 ft 478 kts 121°
2026-04-21 14:29 27.45527 33.23921 17797 ft 473 kts 121°
2026-04-21 14:29 27.43934 33.27138 17281 ft 469 kts 121°
2026-04-21 14:30 27.42350 33.30328 16772 ft 464 kts 120°
2026-04-21 14:30 27.40785 33.33480 16265 ft 458 kts 120°
2026-04-21 14:30 27.39268 33.36533 15788 ft 449 kts 120°
2026-04-21 14:30 27.37760 33.39572 15297 ft 441 kts 120°
2026-04-21 14:31 27.36272 33.42570 14819 ft 436 kts 120°
2026-04-21 14:31 27.34799 33.45534 14347 ft 432 kts 120°
2026-04-21 14:31 27.33831 33.47481 14046 ft 430 kts 120°
2026-04-21 14:31 27.32128 33.50897 13470 ft 426 kts 120°
2026-04-21 14:32 27.30683 33.53791 12957 ft 423 kts 120°
2026-04-21 14:32 27.29270 33.56626 12457 ft 419 kts 119°
2026-04-21 14:32 27.27850 33.59478 11958 ft 417 kts 119°
2026-04-21 14:32 27.26446 33.62296 11486 ft 410 kts 119°
2026-04-21 14:33 27.25068 33.65063 11061 ft 401 kts 119°
2026-04-21 14:33 27.23718 33.67768 10630 ft 393 kts 118°
2026-04-21 14:33 27.22390 33.70419 10213 ft 385 kts 118°
2026-04-21 14:33 27.21089 33.73015 9785 ft 378 kts 118°
2026-04-21 14:34 27.19811 33.75564 9333 ft 371 kts 118°
2026-04-21 14:34 27.18721 33.78155 8929 ft 362 kts 110°
2026-04-21 14:34 27.17823 33.80720 8602 ft 355 kts 110°
2026-04-21 14:34 27.16942 33.83253 8247 ft 339 kts 109°
2026-04-21 14:35 27.16105 33.85645 7901 ft 320 kts 110°
2026-04-21 14:35 27.15311 33.87905 7624 ft 303 kts 110°
2026-04-21 14:35 27.14478 33.90049 7359 ft 299 kts 120°
2026-04-21 14:35 27.13098 33.91785 7096 ft 300 kts 143°
2026-04-21 14:36 27.11301 33.92963 6626 ft 298 kts 153°
2026-04-21 14:36 27.09445 33.93979 6141 ft 296 kts 154°
2026-04-21 14:36 27.07589 33.94819 5645 ft 286 kts 169°
2026-04-21 14:36 27.05642 33.95159 4989 ft 283 kts 175°
2026-04-21 14:37 27.03681 33.95422 4288 ft 284 kts 175°
2026-04-21 14:37 27.01777 33.95546 4021 ft 263 kts 192°
2026-04-21 14:37 27.00133 33.94923 3780 ft 243 kts 220°
2026-04-21 14:37 26.98960 33.93631 3573 ft 234 kts 236°
2026-04-21 14:38 26.98011 33.92165 3351 ft 230 kts 246°
2026-04-21 14:38 26.97554 33.90513 3174 ft 218 kts 272°
2026-04-21 14:38 26.97585 33.88851 3005 ft 211 kts 277°
2026-04-21 14:38 26.97710 33.87261 2828 ft 204 kts 289°
2026-04-21 14:39 26.98274 33.85867 2680 ft 190 kts 308°
2026-04-21 14:39 26.99176 33.84868 2511 ft 178 kts 327°
2026-04-21 14:39 27.00242 33.84306 2338 ft 164 kts 343°
2026-04-21 14:39 27.01328 33.83995 2214 ft 159 kts 344°
2026-04-21 14:40 27.02381 33.83685 2092 ft 150 kts 343°
2026-04-21 14:40 27.03344 33.83402 1980 ft 139 kts 344°
2026-04-21 14:40 27.04267 33.83131 1855 ft 135 kts 343°
2026-04-21 14:40 27.05171 33.82864 1730 ft 134 kts 344°
2026-04-21 14:41 27.06054 33.82603 1676 ft 134 kts 345°
2026-04-21 14:41 27.06956 33.82336 1674 ft 134 kts 345°
2026-04-21 14:41 27.07854 33.82069 1663 ft 133 kts 344°
2026-04-21 14:41 27.08751 33.81802 1568 ft 133 kts 344°
2026-04-21 14:42 27.09646 33.81536 1403 ft 133 kts 343°
2026-04-21 14:42 27.10531 33.81275 1228 ft 132 kts 345°
2026-04-21 14:42 27.11430 33.81011 1046 ft 135 kts 345°
2026-04-21 14:42 27.12332 33.80746 871 ft 133 kts 346°
2026-04-21 14:43 27.13209 33.80477 657 ft 131 kts 346°
2026-04-21 14:43 27.14089 33.80192 488 ft 132 kts 347°
2026-04-21 14:43 27.15010 33.79950 354 ft 135 kts 346°
2026-04-21 14:43 27.15902 33.79683 180 ft 132 kts 348°
2026-04-21 14:44 27.16719 33.79445 111 ft 106 kts 346°
2026-04-21 14:44 27.17239 33.79290 105 ft 43 kts 345°
2026-04-21 14:44 27.17434 33.79231 100 ft 24 kts 345°
2026-04-21 14:44 27.17612 33.79183 99 ft 26 kts 348°
2026-04-21 14:45 27.17772 33.79157 98 ft 20 kts 358°
2026-04-21 14:45 27.17903 33.79180 99 ft 19 kts 13°
2026-04-21 14:45 27.17961 33.79240 98 ft 12 kts 91°
2026-04-21 14:45 27.17898 33.79294 95 ft 11 kts 162°
2026-04-21 14:46 27.17827 33.79314 95 ft 11 kts 165°
2026-04-21 14:46 27.17723 33.79344 97 ft 18 kts 165°
2026-04-21 14:46 27.17609 33.79379 99 ft 16 kts 165°
2026-04-21 14:46 27.17506 33.79409 99 ft 15 kts 165°
2026-04-21 14:47 27.17415 33.79436 102 ft 12 kts 165°
2026-04-21 14:47 27.17341 33.79458 102 ft 10 kts 164°
2026-04-21 14:47 27.17257 33.79491 101 ft 13 kts 148°
2026-04-21 14:47 27.17247 33.79585 98 ft 15 kts 74°
2026-04-21 14:48 27.17283 33.79729 82 ft 20 kts 75°
2026-04-21 14:48 27.17328 33.79914 60 ft 23 kts 74°
2026-04-21 14:48 27.17368 33.80082 55 ft 22 kts 76°
2026-04-21 14:48 27.17400 33.80223 53 ft 12 kts 75°
2026-04-21 14:49 27.17424 33.80319 49 ft 14 kts 74°
2026-04-21 14:49 27.17462 33.80377 52 ft 9 kts 19°
2026-04-21 14:49 27.17523 33.80370 53 ft 9 kts 345°
2026-04-21 14:49 27.17591 33.80349 55 ft 12 kts 346°
2026-04-21 14:50 27.17652 33.80332 51 ft 15 kts 345°
2026-04-21 14:50 27.17777 33.80295 51 ft 15 kts 346°
2026-04-21 14:50 27.17884 33.80264 54 ft 18 kts 345°
2026-04-21 14:50 27.18013 33.80225 54 ft 18 kts 345°
2026-04-21 14:51 27.18131 33.80190 53 ft 17 kts 344°
2026-04-21 14:51 27.18238 33.80158 52 ft 13 kts 345°
2026-04-21 14:51 27.18319 33.80135 50 ft 10 kts 346°
2026-04-21 14:51 27.18405 33.80110 49 ft 13 kts 346°
2026-04-21 14:52 27.18482 33.80087 50 ft 9 kts 344°
2026-04-21 14:52 27.18545 33.80085 51 ft 9 kts 24°
2026-04-21 14:52 27.18566 33.80133 54 ft 4 kts 77°
2026-04-21 14:52 27.18576 33.80174 57 ft 10 kts 73°
2026-04-21 14:53 27.18594 33.80205 53 ft 1 kts 40°
2026-04-21 14:53 27.18633 33.80209 58 ft 8 kts 346°
2026-04-21 14:53 27.18693 33.80191 51 ft 10 kts 345°
2026-04-21 14:53 27.18765 33.80169 55 ft 11 kts 345°
2026-04-21 14:54 27.18847 33.80146 53 ft 13 kts 345°
2026-04-21 14:54 27.18905 33.80155 58 ft 8 kts 64°
2026-04-21 14:54 27.18917 33.80208 57 ft 4 kts 75°
2026-04-21 14:54 27.18920 33.80221 52 ft 0 kts 75°